Regional Weather Roundup
Issued by NWS Northern Indiana

Home | Current Version | Previous Version | Text Only | Print | Product List | Glossary Off
Versions: 1 2 3 4 5 6 7 8 9 10 11 12 13 14 15 16 17 18 19 20 21 22 23 24 25 26 27 28 29 30 31 32 33 34 35 36 37 38 39 40 41 42 43 44 45 46 47 48 49 50

000
ASUS43 KIWX 050010
RWRIWX

KIWX WEATHER ROUNDUP
NATIONAL WEATHER SERVICE NORTHERN INDIANA
800 PM EDT MON MAY 04 2015

NOTE: "FAIR" INDICATES FEW OR NO CLOUDS BELOW 12,000 FEET WITH NO
SIGNIFICANT WEATHER AND/OR OBSTRUCTIONS TO VISIBILITY.

* THESE STATIONS ARE NOT UNDER NWS QUALITY CONTROL. THEY ALSO MAY NOT
  REPORT WEATHER SUCH AS PRECIPITATION OR FOG.

INZ001>027-050100-
NORTHERN INDIANA

CITY           SKY/WX    TMP DP  RH WIND       PRES   REMARKS
GARY*          MOCLDY    61 N/A N/A E9        30.15S
VALPARAISO     MOCLDY    67  58  72 NE5       30.14S
6HR MIN TEMP:  67; 6HR MAX TEMP:  72;

MICHIGAN CITY* MOCLDY    63  50  63 NE5       30.15S
LAPORTE*       CLOUDY    69  59  71 N6        30.15S
6HR MIN TEMP:  69; 6HR MAX TEMP:  73;

KNOX*          CLOUDY    70  50  49 CALM      30.13S
SOUTH BEND     MOCLDY    68  57  68 N9        30.15S
6HR MIN TEMP:  68; 6HR MAX TEMP:  72;

ELKHART*       MOCLDY    68  54  60 NW3       30.15
GOSHEN         MOCLDY    68  60  75 W3        30.14S
6HR MIN TEMP:  68; 6HR MAX TEMP:  72;

MONTICELLO*    CLOUDY    66  63  89 CALM      30.14S
6HR MIN TEMP:  65; 6HR MAX TEMP:  69;

LOGANSPORT*    LGT RAIN  64  61  88 SE5       30.16S
ROCHESTER*     CLOUDY    70  63  78 S3        30.16R
WARSAW*        CLOUDY    68  61  77 CALM      30.15S
ANGOLA*        PTCLDY    72  59  64 W5        30.14R
FORT WAYNE     CLOUDY    65  61  87 SW5       30.17S
6HR MIN TEMP:  64; 6HR MAX TEMP:  68; 6HR PCP: TRACE;

HUNTINGTON*    LGT RAIN  64  61  91 CALM      30.17R
6HR MIN TEMP:  63; 6HR MAX TEMP:  67;

PERU/GRISSOM   LGT RAIN  64  63  94 S6        30.16R FOG
6HR MIN TEMP:  65; 6HR MAX TEMP:  70; 6HR PCP:  0.12;

MARION*        RAIN      65  60  84 SW3       30.19R
6HR MIN TEMP:  29; 6HR MAX TEMP:  78; 6HR PCP:  0.03;


$$
INZ028>050-050100-
CENTRAL INDIANA

CITY           SKY/WX    TMP DP  RH WIND       PRES   REMARKS
LAFAYETTE      CLOUDY    63  62  97 E6        30.13S
6HR MIN TEMP:  62; 6HR MAX TEMP:  71; 6HR PCP:  0.06;

KOKOMO*        CLOUDY    64  63  94 SW8       30.18R
6HR MIN TEMP:  64; 6HR MAX TEMP:  72; 6HR PCP:  0.14;

MUNCIE*        LGT RAIN  68  60  75 NW3       30.17S
6HR MIN TEMP:  66; 6HR MAX TEMP:  72; 6HR PCP: TRACE;

INDIANAPOLIS   CLOUDY    73  58  59 S9        30.14R
6HR MIN TEMP:  66; 6HR MAX TEMP:  76;


$$
MIZ043>046-050>051-056>058-064>065-071>073-077>080-050100-
SOUTHWEST LOWER MICHIGAN

CITY           SKY/WX    TMP DP  RH WIND       PRES   REMARKS
BATTLE CREEK   MOCLDY    70  54  56 W6        30.15R
6HR MIN TEMP:  70; 6HR MAX TEMP:  75;

BENTON HARBOR  MOCLDY    61  52  72 NW6       30.15S
6HR MIN TEMP:  59; 6HR MAX TEMP:  65;

COLDWATER*     MOCLDY    68  55  62 W7        30.14S
6HR MIN TEMP:  68; 6HR MAX TEMP:  74;

HILLSDALE*     MOCLDY    71  54  54 W6        30.14S
6HR MIN TEMP:  71; 6HR MAX TEMP:  77;

HOLLAND        PTCLDY    61  46  57 W6        30.15S
6HR MIN TEMP:  57; 6HR MAX TEMP:  63;

GRAND RAPIDS   PTCLDY    69  51  52 W10       30.13R
6HR MIN TEMP:  69; 6HR MAX TEMP:  74;

KALAMAZOO      MOCLDY    69  54  58 W3        30.15R
6HR MIN TEMP:  69; 6HR MAX TEMP:  75;

STURGIS*       MOCLDY    70  57  64 CALM      30.14S
THREE RIVERS*  FAIR      68  54  61 NW6       30.15S

$$
OHZ001>008-015>018-024>025-050100-
NORTHWEST OHIO

CITY           SKY/WX    TMP DP  RH WIND       PRES   REMARKS
WAUSEON*       FAIR      68  63  83 SW7       30.14R
DEFIANCE       MOCLDY    68  61  78 SW8       30.15R
6HR MIN TEMP:  66; 6HR MAX TEMP:  73; 6HR PCP: TRACE;

FINDLAY        MOCLDY    66  60  81 S7        30.16R
6HR MIN TEMP:  65; 6HR MAX TEMP:  70; 6HR PCP:  0.01;

TOLEDO EXPRESS MOCLDY    68  60  75 SW9       30.14R
6HR MIN TEMP:  65; 6HR MAX TEMP:  72; 6HR PCP: TRACE;

TOLEDO METCALF MOCLDY    70  57  63 SW12      30.15R
6HR MIN TEMP:  65; 6HR MAX TEMP:  72; 6HR PCP: TRACE;

LIMA           CLOUDY    65  61  87 CALM      30.17R
6HR MIN TEMP:  64; 6HR MAX TEMP:  70; 6HR PCP:  0.03;


$$
AND FOR LAKE MICHIGAN COASTAL AND OPEN LAKE BUOY OBSERVATIONS

STATION/POSITION TEMP    WIND        PRES    VSBY  WAVE
                 AIR SEA DIR/SP/G                  HT/PER
                 (F)     (DEG/KT/KT) (MB)    (MI)  (FT/S)
CALUMET HARBOR    51     360/  5/  6   N/A
MICHIGAN CITY     54      40/ 11/ 12   N/A
BURNS HARBOR      55      70/ 10/ 12 1021.3R
SAINT JOSEPH      53     350/  4/  6 1021.7F
4 MI NW BRIDGMAN  50 49   20/  8/  8   N/A           1
MICHIGAN CITY     51 50   80/  6/  8   N/A           1

$$
&&



USA.gov is the U.S. government's official web portal to all federal, state and local government web resources and services.